Lumberton, NJ

7:17 AM EDT on September 25, 2016 (GMT -0400)
South Jersey Regional

Weather History for KVAY - October, 2011

Change the Weather History Date:

Tuesday, October 11, 2011

  Actual Average (KWRI) Record (KWRI)
Temperature  
Mean Temperature 64 °F -  
Max Temperature 75 °F 66 °F 82 °F (2001)
Min Temperature 55 °F 45 °F 37 °F (2015)
Degree Days  
Heating Degree Days 1    
Growing Degree Days 14 (Base 50)    
Moisture  
Dew Point 55 °F    
Average Humidity 73    
Maximum Humidity 97    
Minimum Humidity 45    
Precipitation  
Precipitation 0.00 in - - ()
Sea Level Pressure  
Sea Level Pressure 30.14 in    
Wind  
Wind Speed 3 mph (ENE)    
Max Wind Speed 10 mph    
Max Gust Speed 16 mph    
Visibility 9 miles    
Events      
Averages and records for this station are not official NWS values.
T = Trace of Precipitation, MM = Missing Value Source: NWS Daily Summary

Daily Weather History Graph

Daily Weather History Graph

Search for Another Location

Airport or City:

Trip Planner

Search our weather history database for the weather conditions in past years. The results will help you decide how hot, cold, wet, or windy it might be!

Date:

Astronomy

Oct. 11, 2011 Rise Set
Actual Time 7:05 AM EDT 6:26 PM EDT
Civil Twilight 6:38 AM EDT 6:53 PM EDT
Nautical Twilight 6:06 AM EDT 7:24 PM EDT
Astronomical Twilight 5:35 AM EDT 7:56 PM EDT
Moon 5:56 PM EDT (10/11) 6:40 AM EDT (10/11)
Length of Visible Light 12h 15m
Length of Day
11h 21m
Full, 100% of the Moon is Illuminated
Oct 11
Full
Oct 11
Full
Oct 19
Last Quarter
Oct 26
New
Nov 2
First Quarter

Hourly Weather History & Observations

Time (EDT) Temp. Dew Point Humidity Pressure Visibility Wind Dir Wind Speed Gust Speed Precip Events Conditions
1:54 AM 59.0 °F 57.9 °F 96% 30.14 in 6.0 mi Calm Calm - N/A   Mist
2:54 AM 60.1 °F 57.9 °F 93% 30.12 in 8.0 mi Calm Calm - N/A   Unknown
3:54 AM 55.9 °F 55.0 °F 97% 30.13 in 5.0 mi Calm Calm - N/A   Mist
4:54 AM 55.9 °F 54.0 °F 93% 30.13 in 8.0 mi Calm Calm - N/A   Unknown
5:54 AM 57.9 °F 55.9 °F 93% 30.14 in 8.0 mi Calm Calm - N/A   Unknown
6:54 AM 60.1 °F 55.9 °F 86% 30.15 in 9.0 mi Calm Calm - N/A   Clear
7:54 AM 62.1 °F 57.0 °F 84% 30.17 in 10.0 mi NNE 3.5 mph - N/A   Clear
9:54 AM 69.1 °F 57.0 °F 65% 30.18 in 10.0 mi ENE 6.9 mph - N/A   Clear
10:54 AM 72.0 °F 51.1 °F 48% 30.18 in 10.0 mi East 10.4 mph 16.1 mph N/A   Clear
11:54 AM 73.0 °F 53.1 °F 49% 30.18 in 10.0 mi ESE 5.8 mph - N/A   Clear
12:54 PM 73.9 °F 51.1 °F 45% 30.17 in 10.0 mi ESE 6.9 mph - N/A   Clear
1:54 PM 73.9 °F 51.1 °F 45% 30.15 in 10.0 mi East 5.8 mph - N/A   Clear
2:54 PM 73.0 °F 51.1 °F 46% 30.14 in 10.0 mi ENE 5.8 mph - N/A   Clear
4:54 PM 70.0 °F 54.0 °F 57% 30.13 in 10.0 mi East 5.8 mph - N/A   Clear
5:54 PM 68.0 °F 54.0 °F 61% 30.13 in 10.0 mi ENE 3.5 mph - N/A   Clear
6:54 PM 64.9 °F 55.9 °F 73% 30.13 in 10.0 mi East 3.5 mph - N/A   Clear
7:54 PM 64.0 °F 55.9 °F 75% 30.13 in 10.0 mi ENE 4.6 mph - N/A   Clear
8:54 PM 63.0 °F 57.0 °F 81% 30.13 in 10.0 mi East 3.5 mph - N/A   Clear
9:54 PM 63.0 °F 57.0 °F 81% 30.13 in 10.0 mi NE 4.6 mph - N/A   Clear
10:54 PM 63.0 °F 57.0 °F 81% 30.12 in 10.0 mi NE 3.5 mph - N/A   Clear
11:54 PM 63.0 °F 55.0 °F 75% 30.12 in 10.0 mi ENE 3.5 mph - N/A   Overcast